Temp_Advection
nan nan nan nan nan nan nan nan nan nan nan nan nan nan nan nan nan nan nan nan nan nan
nan -0 -0 -0 0 -0 -0 0 -0 -0 -0 -0 -0 -0 0 0 -0 -0 -0 -0 -0 nan
nan 0 -0 -0 -0 -0 -0 -0 -0 0 -0 -0 0 1 1 0 -0 -0 -0 -0 -0 nan
nan -0 -0 -0 -0 -0 -0 -0 -0 -0 -0 -0 0 1 1 0 -0 -0 -0 -0 -0 nan
nan -0 -0 -0 -0 -0 -0 -0 -0 -0 -0 0 1 1 1 -0 -0 -0 -0 -0 -0 nan
nan -0 -0 -0 -0 -0 -0 -0 -0 -0 0 0 0 1 1 1 0 -0 -0 -0 -0 nan
nan -0 -0 -0 -0 -0 -0 -0 -0 -0 -0 -0 1 1 1 0 0 -0 -0 -0 -1 nan
nan -0 -0 -0 -0 -0 -0 -0 -0 0 -0 -0 1 1 1 -0 -0 -0 -0 0 0 nan
nan -0 -0 -0 -0 -0 -0 0 -0 0 0 0 0 1 1 -1 -0 -0 -0 -0 -0 nan
nan -0 -0 -0 -0 -0 -0 -0 0 0 0 -1 1 0 0 -0 -0 -0 -0 0 0 nan
nan -0 -0 -0 -0 -0 -0 -0 0 -0 0 -0 0 1 0 -1 -0 -0 -0 0 0 nan
nan -0 -0 -0 -0 -0 0 -0 -0 0 0 0 -1 1 1 -1 -0 -0 -0 0 1 nan
nan -0 -0 -0 -0 0 -0 0 0 -0 0 0 -1 -0 0 -0 -0 -0 0 -1 -0 nan
nan nan nan nan nan nan nan nan nan nan nan nan nan nan nan nan nan nan nan nan nan nan
Wind_Speed
21 22 23 25 27 28 30 31 32 32 33 34 34 35 35 33 33 31 29 29 29 30
21 23 25 26 28 30 31 32 33 34 35 35 34 34 33 31 30 29 30 30 30 30
22 24 26 29 30 31 32 34 35 36 36 36 35 34 31 30 29 30 30 30 31 31
23 25 28 30 31 32 33 34 35 36 36 36 36 33 31 31 31 32 32 31 33 34
25 27 29 30 30 30 32 33 34 35 36 36 35 34 32 32 32 32 33 33 33 34
26 29 29 28 28 29 31 32 34 35 36 36 36 36 34 32 32 33 33 33 33 34
27 26 26 27 28 30 32 34 35 35 36 36 37 34 33 31 31 32 35 37 40 42
24 24 25 27 29 31 33 34 35 36 36 36 34 32 30 32 37 39 42 45 44 45
22 24 26 29 31 32 33 34 34 36 36 34 32 33 32 33 38 41 43 43 44 45
22 25 27 30 31 32 33 34 36 36 34 33 33 33 32 34 38 41 43 47 47 45
23 26 29 31 32 32 33 34 36 35 33 34 35 31 33 35 37 44 46 45 45 44
24 27 29 31 31 31 33 34 35 32 33 35 35 33 35 36 41 45 45 44 42 44
24 27 29 29 31 30 31 34 34 33 33 34 36 36 36 37 40 44 45 47 40 43
23 26 27 28 28 30 31 32 32 34 36 37 36 37 35 37 40 43 46 46 43 43
Wind_Direction
326 326 327 325 321 319 318 316 316 315 313 311 309 308 305 301 298 293 287 284 280 279
325 325 322 319 319 319 317 315 314 313 312 311 310 307 303 297 291 287 286 284 281 278
323 319 318 319 317 315 314 313 312 313 313 312 309 307 301 295 290 288 285 283 281 279
318 318 317 316 315 314 313 314 314 314 313 312 310 306 299 294 291 287 286 283 282 280
318 317 315 314 315 316 317 317 316 316 314 312 307 306 299 296 292 288 286 285 281 279
317 315 317 319 319 319 319 318 318 317 314 311 310 307 302 296 292 288 286 285 284 284
317 319 321 321 323 324 323 322 321 319 313 314 312 307 304 296 293 293 291 289 289 293
320 321 324 326 326 326 326 324 321 318 317 316 312 310 303 299 302 301 302 300 293 288
324 327 329 329 330 329 326 324 321 322 319 317 315 315 304 302 304 303 300 300 300 298
329 330 332 331 331 329 327 325 325 325 322 320 319 319 310 307 305 305 305 305 302 302
331 332 333 332 331 330 328 329 330 326 327 323 326 325 314 312 310 312 309 307 299 297
334 334 333 332 332 332 332 332 331 331 330 333 331 333 319 319 315 312 311 309 304 302
335 333 333 333 333 334 336 335 333 331 337 339 337 336 324 319 319 315 314 314 307 306
335 334 335 335 334 337 339 334 338 337 345 341 335 327 327 325 322 319 317 317 314 312
Height
1533 1530 1527 1523 1520 1516 1512 1508 1504 1501 1498 1494 1489 1485 1482 1477 1475 1471 1467 1463 1459 1454
1528 1525 1523 1520 1516 1512 1508 1503 1499 1495 1490 1486 1482 1477 1473 1469 1465 1462 1459 1454 1450 1445
1523 1521 1518 1515 1512 1507 1502 1498 1493 1488 1483 1479 1473 1469 1465 1460 1457 1453 1449 1445 1441 1436
1519 1517 1514 1510 1506 1501 1496 1491 1486 1481 1475 1470 1465 1461 1455 1452 1447 1443 1439 1436 1431 1426
1515 1512 1508 1504 1500 1495 1489 1485 1480 1474 1468 1462 1457 1451 1446 1442 1439 1434 1429 1425 1422 1417
1510 1506 1501 1497 1493 1488 1483 1478 1473 1466 1460 1454 1449 1441 1438 1434 1429 1425 1420 1416 1412 1408
1504 1500 1495 1491 1487 1483 1477 1471 1465 1458 1453 1446 1440 1433 1428 1425 1421 1415 1411 1406 1400 1395
1499 1494 1490 1485 1481 1475 1470 1465 1458 1452 1446 1439 1431 1426 1422 1417 1411 1405 1399 1393 1388 1382
1493 1490 1485 1481 1475 1469 1464 1458 1453 1445 1438 1429 1423 1420 1415 1410 1403 1397 1390 1383 1377 1371
1488 1484 1480 1475 1469 1463 1457 1452 1445 1438 1432 1424 1416 1410 1406 1402 1395 1387 1379 1372 1364 1357
1483 1479 1475 1470 1464 1458 1452 1446 1437 1431 1426 1419 1409 1403 1398 1393 1385 1377 1369 1361 1353 1346
1479 1475 1469 1465 1459 1454 1445 1440 1433 1424 1418 1412 1402 1396 1390 1384 1377 1367 1358 1350 1343 1334
1475 1469 1465 1460 1454 1447 1440 1434 1429 1421 1413 1406 1397 1389 1384 1378 1369 1358 1349 1340 1331 1324
1469 1465 1461 1456 1450 1443 1435 1430 1422 1415 1407 1400 1394 1385 1379 1372 1362 1351 1340 1330 1320 1312